Location: Austin
(30.3000°N, 97.7500°W)
Time: 11:58:58
(UTC-05:00)

USA 238 DEB - Pass Details

Date: 03 April 2024
Orbit: 926 x 1285 km, 63.4° (Epoch: 15 April)

Event Time Altitude Azimuth Distance (km) Brightness Sun altitude
Rises 06:11:30 0° 330° (NNW) 4,060 6.6 -14.7°
Reaches altitude 10° 06:14:09 10° 330° (NNW) 3,139 6.0 -14.2°
Maximum altitude 06:21:49 86° 243° (WSW) 1,261 4.0 -12.6°
Drops below altitude 10° 06:29:50 10° 155° (SSE) 3,274 6.4 -10.9°
Sets 06:32:40 0° 155° (SSE) 4,243 7.0 -10.3°
